Year,Month,Day,Hour,Minute,Value (Times are PST for temperature in C)
2019,03,06,00,00,-4.60
2019,03,06,00,01,-4.60
2019,03,06,00,02,-4.60
2019,03,06,00,03,-4.60
2019,03,06,00,04,-4.60
2019,03,06,00,05,-4.60
2019,03,06,00,06,-4.60
2019,03,06,00,07,-4.60
2019,03,06,00,08,-4.60
2019,03,06,00,09,-4.60
2019,03,06,00,10,-4.60
2019,03,06,00,11,-4.60
2019,03,06,00,12,-4.60
2019,03,06,00,13,-4.60
2019,03,06,00,14,-4.60
2019,03,06,00,15,-4.60
2019,03,06,00,16,-4.60
2019,03,06,00,17,-4.60
2019,03,06,00,18,-4.60
2019,03,06,00,19,-4.60
2019,03,06,00,20,-4.70
2019,03,06,00,21,-4.70
2019,03,06,00,22,-4.70
2019,03,06,00,23,-4.70
2019,03,06,00,24,-4.70
2019,03,06,00,25,-4.70
2019,03,06,00,26,-4.70
2019,03,06,00,27,-4.70
2019,03,06,00,28,-4.70
2019,03,06,00,29,-4.70
2019,03,06,00,30,-4.70
2019,03,06,00,31,-4.70
2019,03,06,00,32,-4.70
2019,03,06,00,33,-4.70
2019,03,06,00,34,-4.70
2019,03,06,00,35,-4.70
2019,03,06,00,36,-4.70
2019,03,06,00,37,-4.70
2019,03,06,00,38,-4.70
2019,03,06,00,39,-4.70
2019,03,06,00,40,-4.70
2019,03,06,00,41,-4.70
2019,03,06,00,42,-4.70
2019,03,06,00,43,-4.80
2019,03,06,00,44,-4.80
2019,03,06,00,45,-4.80
2019,03,06,00,46,-4.80
2019,03,06,00,47,-4.80
2019,03,06,00,48,-4.80
2019,03,06,00,49,-4.80
2019,03,06,00,50,-4.80
2019,03,06,00,51,-4.80
2019,03,06,00,52,-4.80
2019,03,06,00,53,-4.80
2019,03,06,00,54,-4.80
2019,03,06,00,55,-4.80
2019,03,06,00,56,-4.90
2019,03,06,00,57,-4.90
2019,03,06,00,58,-4.90
2019,03,06,00,59,-4.90
2019,03,06,01,00,-4.90
2019,03,06,01,01,-4.90
2019,03,06,01,02,-4.90
2019,03,06,01,03,-5.00
2019,03,06,01,04,-5.00
2019,03,06,01,05,-5.00
2019,03,06,01,06,-5.00
2019,03,06,01,07,-5.00
2019,03,06,01,08,-5.00
2019,03,06,01,09,-5.10
2019,03,06,01,10,-5.10
2019,03,06,01,11,-5.10
2019,03,06,01,12,-5.10
2019,03,06,01,13,-5.10
2019,03,06,01,14,-5.10
2019,03,06,01,15,-5.10
2019,03,06,01,16,-5.10
2019,03,06,01,17,-5.10
2019,03,06,01,18,-5.10
2019,03,06,01,19,-5.20
2019,03,06,01,20,-5.10
2019,03,06,01,21,-5.20
2019,03,06,01,22,-5.20
2019,03,06,01,23,-5.20
2019,03,06,01,24,-5.20
2019,03,06,01,25,-5.20
2019,03,06,01,26,-5.20
2019,03,06,01,27,-5.20
2019,03,06,01,28,-5.20
2019,03,06,01,29,-5.20
2019,03,06,01,30,-5.20
2019,03,06,01,31,-5.20
2019,03,06,01,32,-5.30
2019,03,06,01,33,-5.30
2019,03,06,01,34,-5.30
2019,03,06,01,35,-5.30
2019,03,06,01,36,-5.30
2019,03,06,01,37,-5.30
2019,03,06,01,38,-5.30
2019,03,06,01,39,-5.30
2019,03,06,01,40,-5.40
2019,03,06,01,41,-5.40
2019,03,06,01,42,-5.40
2019,03,06,01,43,-5.40
2019,03,06,01,44,-5.40
2019,03,06,01,45,-5.40
2019,03,06,01,46,-5.50
2019,03,06,01,47,-5.50
2019,03,06,01,48,-5.50
2019,03,06,01,49,-5.50
2019,03,06,01,50,-5.50
2019,03,06,01,51,-5.50
2019,03,06,01,52,-5.60
2019,03,06,01,53,-5.60
2019,03,06,01,54,-5.60
2019,03,06,01,55,-5.60
2019,03,06,01,56,-5.60
2019,03,06,01,57,-5.60
2019,03,06,01,58,-5.60
2019,03,06,01,59,-5.60
2019,03,06,02,00,-5.70
2019,03,06,02,01,-5.70
2019,03,06,02,02,-5.70
2019,03,06,02,03,-5.70
2019,03,06,02,04,-5.70
2019,03,06,02,05,-5.70
2019,03,06,02,06,-5.70
2019,03,06,02,07,-5.70
2019,03,06,02,08,-5.70
2019,03,06,02,09,-5.70
2019,03,06,02,10,-5.70
2019,03,06,02,11,-5.70
2019,03,06,02,12,-5.70
2019,03,06,02,13,-5.70
2019,03,06,02,14,-5.80
2019,03,06,02,15,-5.80
2019,03,06,02,16,-5.80
2019,03,06,02,17,-5.80
2019,03,06,02,18,-5.80
2019,03,06,02,19,-5.80
2019,03,06,02,20,-5.80
2019,03,06,02,21,-5.80
2019,03,06,02,22,-5.80
2019,03,06,02,23,-5.80
2019,03,06,02,24,-5.80
2019,03,06,02,25,-5.80
2019,03,06,02,26,-5.80
2019,03,06,02,27,-5.80
2019,03,06,02,28,-5.80
2019,03,06,02,29,-5.80
2019,03,06,02,30,-5.80
2019,03,06,02,31,-5.80
2019,03,06,02,32,-5.80
2019,03,06,02,33,-5.80
2019,03,06,02,34,-5.90
2019,03,06,02,35,-5.90
2019,03,06,02,36,-5.90
2019,03,06,02,37,-5.90
2019,03,06,02,38,-5.90
2019,03,06,02,39,-5.90
2019,03,06,02,40,-5.90
2019,03,06,02,41,-5.90
2019,03,06,02,42,-5.90
2019,03,06,02,43,-5.90
2019,03,06,02,44,-5.90
2019,03,06,02,45,-6.00
2019,03,06,02,46,-6.00
2019,03,06,02,47,-6.00
2019,03,06,02,48,-6.10
2019,03,06,02,49,-6.10
2019,03,06,02,50,-6.10
2019,03,06,02,51,-6.10
2019,03,06,02,52,-6.10
2019,03,06,02,53,-6.10
2019,03,06,02,54,-6.20
2019,03,06,02,55,-6.20
2019,03,06,02,56,-6.20
2019,03,06,02,57,-6.20
2019,03,06,02,58,-6.20
2019,03,06,02,59,-6.20
2019,03,06,03,00,-6.20
2019,03,06,03,01,-6.20
2019,03,06,03,02,-6.20
2019,03,06,03,03,-6.20
2019,03,06,03,04,-6.20
2019,03,06,03,05,-6.30
2019,03,06,03,06,-6.30
2019,03,06,03,07,-6.30
2019,03,06,03,08,-6.30
2019,03,06,03,09,-6.30
2019,03,06,03,10,-6.30
2019,03,06,03,11,-6.30
2019,03,06,03,12,-6.30
2019,03,06,03,13,-6.40
2019,03,06,03,14,-6.40
2019,03,06,03,15,-6.40
2019,03,06,03,16,-6.40
2019,03,06,03,17,-6.40
2019,03,06,03,18,-6.40
2019,03,06,03,19,-6.40
2019,03,06,03,20,-6.40
2019,03,06,03,21,-6.40
2019,03,06,03,22,-6.50
2019,03,06,03,23,-6.50
2019,03,06,03,24,-6.50
2019,03,06,03,25,-6.50
2019,03,06,03,26,-6.50
2019,03,06,03,27,-6.50
2019,03,06,03,28,-6.40
2019,03,06,03,29,-6.40
2019,03,06,03,30,-6.40
2019,03,06,03,31,-6.40
2019,03,06,03,32,-6.40
2019,03,06,03,33,-6.40
2019,03,06,03,34,-6.40
2019,03,06,03,35,-6.40
2019,03,06,03,36,-6.40
2019,03,06,03,37,-6.40
2019,03,06,03,38,-6.40
2019,03,06,03,39,-6.40
2019,03,06,03,40,-6.40
2019,03,06,03,41,-6.40
2019,03,06,03,42,-6.40
2019,03,06,03,43,-6.40
2019,03,06,03,44,-6.40
2019,03,06,03,45,-6.40
2019,03,06,03,46,-6.40
2019,03,06,03,47,-6.50
2019,03,06,03,48,-6.50
2019,03,06,03,49,-6.50
2019,03,06,03,50,-6.50
2019,03,06,03,51,-6.50
2019,03,06,03,52,-6.60
2019,03,06,03,53,-6.60
2019,03,06,03,54,-6.60
2019,03,06,03,55,-6.60
2019,03,06,03,56,-6.60
2019,03,06,03,57,-6.60
2019,03,06,03,58,-6.70
2019,03,06,03,59,-6.70
2019,03,06,04,00,-6.70
2019,03,06,04,01,-6.70
2019,03,06,04,02,-6.70
2019,03,06,04,03,-6.70
2019,03,06,04,04,-6.70
2019,03,06,04,05,-6.70
2019,03,06,04,06,-6.70
2019,03,06,04,07,-6.70
2019,03,06,04,08,-6.70
2019,03,06,04,09,-6.80
2019,03,06,04,10,-6.80
2019,03,06,04,11,-6.80
2019,03,06,04,12,-6.80
2019,03,06,04,13,-6.80
2019,03,06,04,14,-6.80
2019,03,06,04,15,-6.80
2019,03,06,04,16,-6.80
2019,03,06,04,17,-6.80
2019,03,06,04,18,-6.80
2019,03,06,04,19,-6.80
2019,03,06,04,20,-6.80
2019,03,06,04,21,-6.80
2019,03,06,04,22,-6.80
2019,03,06,04,23,-6.80
2019,03,06,04,24,-6.80
2019,03,06,04,25,-6.80
2019,03,06,04,26,-6.80
2019,03,06,04,27,-6.80
2019,03,06,04,28,-6.80
2019,03,06,04,29,-6.80
2019,03,06,04,30,-6.80
2019,03,06,04,31,-6.80
2019,03,06,04,32,-6.80
2019,03,06,04,33,-6.80
2019,03,06,04,34,-6.80
2019,03,06,04,35,-6.80
2019,03,06,04,36,-6.80
2019,03,06,04,37,-6.80
2019,03,06,04,38,-6.80
2019,03,06,04,39,-6.80
2019,03,06,04,40,-6.80
2019,03,06,04,41,-6.80
2019,03,06,04,42,-6.80
2019,03,06,04,43,-6.80
2019,03,06,04,44,-6.80
2019,03,06,04,45,-6.80
2019,03,06,04,46,-6.80
2019,03,06,04,47,-6.80
2019,03,06,04,48,-6.80
2019,03,06,04,49,-6.80
2019,03,06,04,50,-6.80
2019,03,06,04,51,-6.90
2019,03,06,04,52,-6.90
2019,03,06,04,53,-6.90
2019,03,06,04,54,-6.90
2019,03,06,04,55,-6.90
2019,03,06,04,56,-7.00
2019,03,06,04,57,-7.00
2019,03,06,04,58,-7.00
2019,03,06,04,59,-7.00
2019,03,06,05,00,-7.00
2019,03,06,05,01,-7.00
2019,03,06,05,02,-7.00
2019,03,06,05,03,-7.00
2019,03,06,05,04,-7.00
2019,03,06,05,05,-7.00
2019,03,06,05,06,-7.00
2019,03,06,05,07,-7.00
2019,03,06,05,08,-7.00
2019,03,06,05,09,-7.00
2019,03,06,05,10,-7.00
2019,03,06,05,11,-7.00
2019,03,06,05,12,-7.00
2019,03,06,05,13,-7.00
2019,03,06,05,14,-7.00
2019,03,06,05,15,-7.00
2019,03,06,05,16,-7.00
2019,03,06,05,17,-7.00
2019,03,06,05,18,-7.00
2019,03,06,05,19,-7.00
2019,03,06,05,20,-7.00
2019,03,06,05,21,-7.00
2019,03,06,05,22,-7.00
2019,03,06,05,23,-7.00
2019,03,06,05,24,-7.00
2019,03,06,05,25,-7.00
2019,03,06,05,26,-7.00
2019,03,06,05,27,-7.00
2019,03,06,05,28,-7.00
2019,03,06,05,29,-7.00
2019,03,06,05,30,-7.00
2019,03,06,05,31,-7.00
2019,03,06,05,32,-7.00
2019,03,06,05,33,-7.00
2019,03,06,05,34,-7.10
2019,03,06,05,35,-7.10
2019,03,06,05,36,-7.10
2019,03,06,05,37,-7.10
2019,03,06,05,38,-7.10
2019,03,06,05,39,-7.10
2019,03,06,05,40,-7.10
2019,03,06,05,41,-7.10
2019,03,06,05,42,-7.10
2019,03,06,05,43,-7.10
2019,03,06,05,44,-7.10
2019,03,06,05,45,-7.10
2019,03,06,05,46,-7.10
2019,03,06,05,47,-7.10
2019,03,06,05,48,-7.10
2019,03,06,05,49,-7.10
2019,03,06,05,50,-7.10
2019,03,06,05,51,-7.10
2019,03,06,05,52,-7.10
2019,03,06,05,53,-7.10
2019,03,06,05,54,-7.10
2019,03,06,05,55,-7.10
2019,03,06,05,56,-7.10
2019,03,06,05,57,-7.10
2019,03,06,05,58,-7.10
2019,03,06,05,59,-7.10
2019,03,06,06,00,-7.10
2019,03,06,06,01,-7.10
2019,03,06,06,02,-7.10
2019,03,06,06,03,-7.10
2019,03,06,06,04,-7.10
2019,03,06,06,05,-7.10
2019,03,06,06,06,-7.10
2019,03,06,06,07,-7.10
2019,03,06,06,08,-7.10
2019,03,06,06,09,-7.10
2019,03,06,06,10,-7.10
2019,03,06,06,11,-7.10
2019,03,06,06,12,-7.10
2019,03,06,06,13,-7.10
2019,03,06,06,14,-7.10
2019,03,06,06,15,-7.10
2019,03,06,06,16,-7.10
2019,03,06,06,17,-7.10
2019,03,06,06,18,-7.10
2019,03,06,06,19,-7.10
2019,03,06,06,20,-7.20
2019,03,06,06,21,-7.20
2019,03,06,06,22,-7.20
2019,03,06,06,23,-7.20
2019,03,06,06,24,-7.20
2019,03,06,06,25,-7.10
2019,03,06,06,26,-7.20
2019,03,06,06,27,-7.20
2019,03,06,06,28,-7.20
2019,03,06,06,29,-7.20
2019,03,06,06,30,-7.20
2019,03,06,06,31,-7.20
2019,03,06,06,32,-7.20
2019,03,06,06,33,-7.20
2019,03,06,06,34,-7.20
2019,03,06,06,35,-7.20
2019,03,06,06,36,-7.20
2019,03,06,07,25,-6.90
2019,03,06,07,26,-6.90
2019,03,06,07,27,-6.80
2019,03,06,07,28,-6.80
2019,03,06,07,29,-6.80
2019,03,06,07,30,-6.80
2019,03,06,07,31,-6.80
2019,03,06,07,32,-6.80
2019,03,06,07,33,-6.80
2019,03,06,07,34,-6.80
2019,03,06,07,35,-6.80
2019,03,06,07,36,-6.80
2019,03,06,07,37,-6.70
2019,03,06,07,38,-6.70
2019,03,06,07,39,-6.60
2019,03,06,07,40,-6.60
2019,03,06,07,41,-6.50
2019,03,06,07,42,-6.50
2019,03,06,07,43,-6.40
2019,03,06,07,44,-6.40
2019,03,06,07,45,-6.30
2019,03,06,07,46,-6.30
2019,03,06,07,47,-6.30
2019,03,06,07,48,-6.20
2019,03,06,07,49,-6.20
2019,03,06,07,50,-6.20
2019,03,06,07,51,-6.10
2019,03,06,07,52,-6.00
2019,03,06,07,53,-6.00
2019,03,06,07,54,-5.90
2019,03,06,07,55,-5.90
2019,03,06,07,56,-5.90
2019,03,06,07,57,-5.80
2019,03,06,07,58,-5.80
2019,03,06,07,59,-5.80
2019,03,06,08,00,-5.70
2019,03,06,08,01,-5.70
2019,03,06,08,02,-5.60
2019,03,06,08,03,-5.50
2019,03,06,08,04,-5.40
2019,03,06,08,05,-5.40
2019,03,06,08,06,-5.30
2019,03,06,08,07,-5.30
2019,03,06,08,08,-5.20
2019,03,06,08,09,-5.20
2019,03,06,08,10,-5.10
2019,03,06,08,11,-5.10
2019,03,06,08,12,-5.00
2019,03,06,08,13,-4.90
2019,03,06,08,14,-4.80
2019,03,06,08,15,-4.70
2019,03,06,08,16,-4.60
2019,03,06,08,17,-4.50
2019,03,06,08,18,-4.50
2019,03,06,08,19,-4.40
2019,03,06,08,20,-4.30
2019,03,06,08,21,-4.30
2019,03,06,08,22,-4.20
2019,03,06,08,23,-4.20
2019,03,06,08,24,-4.00
2019,03,06,08,25,-3.90
2019,03,06,08,26,-3.90
2019,03,06,08,27,-3.80
2019,03,06,08,28,-3.70
2019,03,06,08,29,-3.70
2019,03,06,08,30,-3.60
2019,03,06,08,31,-3.60
2019,03,06,08,32,-3.50
2019,03,06,08,33,-3.40
2019,03,06,08,34,-3.40
2019,03,06,08,35,-3.30
2019,03,06,08,36,-3.20
2019,03,06,08,37,-3.20
2019,03,06,08,38,-3.20
2019,03,06,08,39,-3.10
2019,03,06,08,40,-3.10
2019,03,06,08,41,-3.00
2019,03,06,08,42,-2.90
2019,03,06,08,43,-2.90
2019,03,06,08,44,-2.80
2019,03,06,08,45,-2.70
2019,03,06,08,46,-2.60
2019,03,06,08,47,-2.40
2019,03,06,08,48,-2.30
2019,03,06,08,49,-2.20
2019,03,06,08,50,-2.10
2019,03,06,08,51,-2.10
2019,03,06,08,52,-2.10
2019,03,06,08,53,-2.00
2019,03,06,08,54,-2.00
2019,03,06,08,55,-2.00
2019,03,06,08,56,-1.90
2019,03,06,08,57,-1.90
2019,03,06,08,58,-1.90
2019,03,06,08,59,-1.90
2019,03,06,09,00,-1.90
2019,03,06,09,01,-1.90
2019,03,06,09,02,-1.80
2019,03,06,09,03,-1.80
2019,03,06,09,04,-1.70
2019,03,06,09,05,-1.60
2019,03,06,09,06,-1.50
2019,03,06,09,07,-1.30
2019,03,06,09,08,-1.20
2019,03,06,09,09,-1.10
2019,03,06,09,10,-0.90
2019,03,06,09,11,-0.80
2019,03,06,09,12,-0.60
2019,03,06,09,13,-0.50
2019,03,06,09,14,-0.40
2019,03,06,09,15,-0.20
2019,03,06,09,16,-0.20
2019,03,06,09,17,-0.10
2019,03,06,09,18,-0.10
2019,03,06,09,19,-0.10
2019,03,06,09,20,-0.20
2019,03,06,09,21,-0.20
2019,03,06,09,22,-0.20
2019,03,06,09,23,-0.20
2019,03,06,09,24,-0.30
2019,03,06,09,25,-0.20
2019,03,06,09,26,-0.20
2019,03,06,09,27,-0.10
2019,03,06,09,28,0.00
2019,03,06,09,29,0.10
2019,03,06,09,30,0.10
2019,03,06,09,31,0.20
2019,03,06,09,32,0.30
2019,03,06,09,33,0.40
2019,03,06,09,34,0.50
2019,03,06,09,35,0.50
2019,03,06,09,36,0.60
2019,03,06,09,37,0.70
2019,03,06,09,38,0.70
2019,03,06,09,39,0.80
2019,03,06,09,40,0.90
2019,03,06,09,41,1.00
2019,03,06,09,42,1.20
2019,03,06,09,43,1.30
2019,03,06,09,44,1.30
2019,03,06,09,45,1.50
2019,03,06,09,46,1.60
2019,03,06,09,47,1.70
2019,03,06,09,48,1.80
2019,03,06,09,49,1.90
2019,03,06,09,50,1.90
2019,03,06,09,51,1.80
2019,03,06,09,52,1.80
2019,03,06,09,53,1.70
2019,03,06,09,54,1.70
2019,03,06,09,55,1.70
2019,03,06,09,56,1.70
2019,03,06,09,57,1.70
2019,03,06,09,58,1.70
2019,03,06,09,59,1.70
2019,03,06,10,00,1.70
2019,03,06,10,01,1.80
2019,03,06,10,02,1.80
2019,03,06,10,03,1.80
2019,03,06,10,04,1.90
2019,03,06,10,05,1.90
2019,03,06,10,06,1.90
2019,03,06,10,07,1.90
2019,03,06,10,08,2.00
2019,03,06,10,09,2.00
2019,03,06,10,10,2.00
2019,03,06,10,11,2.00
2019,03,06,10,12,2.00
2019,03,06,10,13,2.00
2019,03,06,10,14,2.00
2019,03,06,10,15,2.00
2019,03,06,10,16,2.00
2019,03,06,10,17,2.00
2019,03,06,10,18,2.00
2019,03,06,10,19,2.00
2019,03,06,10,20,2.00
2019,03,06,10,21,2.00
2019,03,06,10,22,2.10
2019,03,06,10,23,2.10
2019,03,06,10,24,2.10
2019,03,06,10,25,2.10
2019,03,06,10,26,2.10
2019,03,06,10,27,2.10
2019,03,06,10,28,2.10
2019,03,06,10,29,2.10
2019,03,06,10,30,2.10
2019,03,06,10,31,2.20
2019,03,06,10,32,2.20
2019,03,06,10,33,2.30
2019,03,06,10,34,2.30
2019,03,06,10,35,2.40
2019,03,06,10,36,2.50
2019,03,06,10,37,2.50
2019,03,06,10,38,2.60
2019,03,06,10,39,2.60
2019,03,06,10,40,2.60
2019,03,06,10,41,2.70
2019,03,06,10,42,2.70
2019,03,06,10,43,2.80
2019,03,06,10,44,2.80
2019,03,06,10,45,2.90
2019,03,06,10,46,3.00
2019,03,06,10,47,3.10
2019,03,06,10,48,3.10
2019,03,06,10,49,3.30
2019,03,06,10,50,3.40
2019,03,06,10,51,3.50
2019,03,06,10,52,3.50
2019,03,06,10,53,3.40
2019,03,06,10,54,3.40
2019,03,06,10,55,3.40
2019,03,06,10,56,3.30
2019,03,06,10,57,3.30
2019,03,06,10,58,3.40
2019,03,06,10,59,3.40
2019,03,06,11,00,3.50
2019,03,06,11,01,3.60
2019,03,06,11,02,3.70
2019,03,06,11,03,3.80
2019,03,06,11,04,3.80
2019,03,06,11,05,3.90
2019,03,06,11,06,3.90
2019,03,06,11,07,3.90
2019,03,06,11,08,3.90
2019,03,06,11,09,3.90
2019,03,06,11,10,4.00
2019,03,06,11,11,4.00
2019,03,06,11,12,4.00
2019,03,06,11,13,4.00
2019,03,06,11,14,4.10
2019,03,06,11,15,4.10
2019,03,06,11,16,4.10
2019,03,06,11,17,4.00
2019,03,06,11,18,4.10
2019,03,06,11,19,4.10
2019,03,06,11,20,4.10
2019,03,06,11,21,4.10
2019,03,06,11,22,4.10
2019,03,06,11,23,4.10
2019,03,06,11,24,4.10
2019,03,06,11,25,4.10
2019,03,06,11,26,4.00
2019,03,06,11,27,4.00
2019,03,06,11,28,3.90
2019,03,06,11,29,3.80
2019,03,06,11,30,3.70
2019,03,06,11,31,3.70
2019,03,06,11,32,3.60
2019,03,06,11,33,3.60
2019,03,06,11,34,3.60
2019,03,06,11,35,3.60
2019,03,06,11,36,3.60
2019,03,06,11,37,3.70
2019,03,06,11,38,3.70
2019,03,06,11,39,3.70
2019,03,06,11,40,3.80
2019,03,06,11,41,3.80
2019,03,06,11,42,3.80
2019,03,06,11,43,3.90
2019,03,06,11,44,4.00
2019,03,06,11,45,4.10
2019,03,06,11,46,4.10
2019,03,06,11,47,4.20
2019,03,06,11,48,4.20
2019,03,06,11,49,4.20
2019,03,06,11,50,4.30
2019,03,06,11,51,4.30
2019,03,06,11,52,4.30
2019,03,06,11,53,4.40
2019,03,06,11,54,4.50
2019,03,06,11,55,4.50
2019,03,06,11,56,4.50
2019,03,06,11,57,4.60
2019,03,06,11,58,4.50
2019,03,06,11,59,4.50
2019,03,06,12,00,4.50
2019,03,06,12,01,4.40
2019,03,06,12,02,4.40
2019,03,06,12,03,4.40
2019,03,06,12,04,4.40
2019,03,06,12,05,4.40
2019,03,06,12,06,4.40
2019,03,06,12,07,4.40
2019,03,06,12,08,4.40
2019,03,06,12,09,4.40
2019,03,06,12,10,4.50
2019,03,06,12,11,4.50
2019,03,06,12,12,4.50
2019,03,06,12,13,4.60
2019,03,06,12,14,4.60
2019,03,06,12,15,4.60
2019,03,06,12,16,4.60
2019,03,06,12,17,4.70
2019,03,06,12,18,4.70
2019,03,06,12,19,4.60
2019,03,06,12,20,4.60
2019,03,06,12,21,4.60
2019,03,06,12,22,4.60
2019,03,06,12,23,4.70
2019,03,06,12,24,4.70
2019,03,06,12,25,4.70
2019,03,06,12,26,4.70
2019,03,06,12,27,4.70
2019,03,06,12,28,4.70
2019,03,06,12,29,4.70
2019,03,06,12,30,4.80
2019,03,06,12,31,4.80
2019,03,06,12,32,4.80
2019,03,06,12,33,4.80
2019,03,06,12,34,4.90
2019,03,06,12,35,4.90
2019,03,06,12,36,4.90
2019,03,06,12,37,5.00
2019,03,06,12,38,5.00
2019,03,06,12,39,5.10
2019,03,06,12,40,5.10
2019,03,06,12,41,5.10
2019,03,06,12,42,5.20
2019,03,06,12,43,5.20
2019,03,06,12,44,5.30
2019,03,06,12,45,5.30
2019,03,06,12,46,5.30
2019,03,06,12,47,5.30
2019,03,06,12,48,5.20
2019,03,06,12,49,5.20
2019,03,06,12,50,5.10
2019,03,06,12,51,5.10
2019,03,06,12,52,5.10
2019,03,06,12,53,5.00
2019,03,06,12,54,5.00
2019,03,06,12,55,4.90
2019,03,06,12,56,4.90
2019,03,06,12,57,4.90
2019,03,06,12,58,4.80
2019,03,06,12,59,4.80
2019,03,06,13,00,4.80
2019,03,06,13,01,4.80
2019,03,06,13,02,4.80
2019,03,06,13,03,4.80
2019,03,06,13,04,4.70
2019,03,06,13,05,4.70
2019,03,06,13,06,4.70
2019,03,06,13,07,4.70
2019,03,06,13,08,4.70
2019,03,06,13,09,4.70
2019,03,06,13,10,4.70
2019,03,06,13,11,4.70
2019,03,06,13,12,4.70
2019,03,06,13,13,4.70
2019,03,06,13,14,4.70
2019,03,06,13,15,4.80
2019,03,06,13,16,4.80
2019,03,06,13,17,4.80
2019,03,06,13,18,4.90
2019,03,06,13,19,4.90
2019,03,06,13,20,4.90
2019,03,06,13,21,5.00
2019,03,06,13,22,5.00
2019,03,06,13,23,5.00
2019,03,06,13,24,5.10
2019,03,06,13,25,5.10
2019,03,06,13,26,5.10
2019,03,06,13,27,5.10
2019,03,06,13,28,5.10
2019,03,06,13,29,5.20
2019,03,06,13,30,5.20
2019,03,06,13,31,5.20
2019,03,06,13,32,5.20
2019,03,06,13,33,5.10
2019,03,06,13,34,5.10
2019,03,06,13,35,5.10
2019,03,06,13,36,5.10
2019,03,06,13,37,5.10
2019,03,06,13,38,5.10
2019,03,06,13,39,5.10
2019,03,06,13,40,5.10
2019,03,06,13,41,5.10
2019,03,06,13,42,5.10
2019,03,06,13,43,5.10
2019,03,06,13,44,5.10
2019,03,06,13,45,5.10
2019,03,06,13,46,5.10
2019,03,06,13,47,5.10
2019,03,06,13,48,5.10
2019,03,06,13,49,5.10
2019,03,06,13,50,5.10
2019,03,06,13,51,5.10
2019,03,06,13,52,5.20
2019,03,06,13,53,5.20
2019,03,06,13,54,5.20
2019,03,06,13,55,5.20
2019,03,06,13,56,5.20
2019,03,06,13,57,5.20
2019,03,06,13,58,5.20
2019,03,06,13,59,5.30
2019,03,06,14,00,5.30
2019,03,06,14,01,5.30
2019,03,06,14,02,5.30
2019,03,06,14,03,5.30
2019,03,06,14,04,5.30
2019,03,06,14,05,5.30
2019,03,06,14,06,5.30
2019,03,06,14,07,5.30
2019,03,06,14,08,5.40
2019,03,06,14,09,5.40
2019,03,06,14,10,5.40
2019,03,06,14,11,5.40
2019,03,06,14,12,5.40
2019,03,06,14,13,5.40
2019,03,06,14,14,5.40
2019,03,06,14,15,5.40
2019,03,06,14,16,5.40
2019,03,06,14,17,5.30
2019,03,06,14,18,5.30
2019,03,06,14,19,5.30
2019,03,06,14,20,5.20
2019,03,06,14,21,5.20
2019,03,06,14,22,5.10
2019,03,06,14,23,5.10
2019,03,06,14,24,5.10
2019,03,06,14,25,5.00
2019,03,06,14,26,5.00
2019,03,06,14,27,4.90
2019,03,06,14,28,5.00
2019,03,06,14,29,5.00
2019,03,06,14,30,5.00
2019,03,06,14,31,5.10
2019,03,06,14,32,5.10
2019,03,06,14,33,5.10
2019,03,06,14,34,5.20
2019,03,06,14,35,5.20
2019,03,06,14,36,5.30
2019,03,06,14,37,5.30
2019,03,06,14,38,5.30
2019,03,06,14,39,5.30
2019,03,06,14,40,5.40
2019,03,06,14,41,5.40
2019,03,06,14,42,5.40
2019,03,06,14,43,5.40
2019,03,06,14,44,5.40
2019,03,06,14,45,5.40
2019,03,06,14,46,5.40
2019,03,06,14,47,5.30
2019,03,06,14,48,5.20
2019,03,06,14,49,5.20
2019,03,06,14,50,5.10
2019,03,06,14,51,5.10
2019,03,06,14,52,5.10
2019,03,06,14,53,5.10
2019,03,06,14,54,5.00
2019,03,06,14,55,5.00
2019,03,06,14,56,5.00
2019,03,06,14,57,5.00
2019,03,06,14,58,5.00
2019,03,06,14,59,5.00
2019,03,06,15,00,5.00
2019,03,06,15,01,5.00
2019,03,06,15,02,4.90
2019,03,06,15,03,4.90
2019,03,06,15,04,4.90
2019,03,06,15,05,4.90
2019,03,06,15,06,4.90
2019,03,06,15,07,4.90
2019,03,06,15,08,4.90
2019,03,06,15,09,4.90
2019,03,06,15,10,4.90
2019,03,06,15,11,4.90
2019,03,06,15,12,4.90
2019,03,06,15,13,4.90
2019,03,06,15,14,4.90
2019,03,06,15,15,5.00
2019,03,06,15,16,5.00
2019,03,06,15,17,5.00
2019,03,06,15,18,5.10
2019,03,06,15,19,5.10
2019,03,06,15,20,5.20
2019,03,06,15,21,5.20
2019,03,06,15,22,5.20
2019,03,06,15,23,5.30
2019,03,06,15,24,5.30
2019,03,06,15,25,5.30
2019,03,06,15,26,5.30
2019,03,06,15,27,5.30
2019,03,06,15,28,5.30
2019,03,06,15,29,5.30
2019,03,06,15,30,5.20
2019,03,06,15,31,5.20
2019,03,06,15,32,5.10
2019,03,06,15,33,5.10
2019,03,06,15,34,5.00
2019,03,06,15,35,4.90
2019,03,06,15,36,4.90
2019,03,06,15,37,4.90
2019,03,06,15,38,4.90
2019,03,06,15,39,4.80
2019,03,06,15,40,4.80
2019,03,06,15,41,4.80
2019,03,06,15,42,4.80
2019,03,06,15,43,4.80
2019,03,06,15,44,4.80
2019,03,06,15,45,4.80
2019,03,06,15,46,4.80
2019,03,06,15,47,4.80
2019,03,06,15,48,4.80
2019,03,06,15,49,4.80
2019,03,06,15,50,4.80
2019,03,06,15,51,4.80
2019,03,06,15,52,4.80
2019,03,06,15,53,4.80
2019,03,06,15,54,4.80
2019,03,06,15,55,4.80
2019,03,06,15,56,4.80
2019,03,06,15,57,4.80
2019,03,06,15,58,4.80
2019,03,06,15,59,4.80
2019,03,06,16,00,4.80
2019,03,06,16,01,4.80
2019,03,06,16,02,4.80
2019,03,06,16,03,4.80
2019,03,06,16,04,4.80
2019,03,06,16,05,4.80
2019,03,06,16,06,4.80
2019,03,06,16,07,4.80
2019,03,06,16,08,4.80
2019,03,06,16,09,4.80
2019,03,06,16,10,4.80
2019,03,06,16,11,4.80
2019,03,06,16,12,4.80
2019,03,06,16,13,4.80
2019,03,06,16,14,4.80
2019,03,06,16,15,4.80
2019,03,06,16,16,4.80
2019,03,06,16,17,4.80
2019,03,06,16,18,4.80
2019,03,06,16,19,4.80
2019,03,06,16,20,4.80
2019,03,06,16,21,4.80
2019,03,06,16,22,4.80
2019,03,06,16,23,4.80
2019,03,06,16,24,4.80
2019,03,06,16,25,4.80
2019,03,06,16,26,4.80
2019,03,06,16,27,4.80
2019,03,06,16,28,4.80
2019,03,06,16,29,4.80
2019,03,06,16,30,4.80
2019,03,06,16,31,4.80
2019,03,06,16,32,4.80
2019,03,06,16,33,4.80
2019,03,06,16,34,4.70
2019,03,06,16,35,4.70
2019,03,06,16,36,4.70
2019,03,06,16,37,4.70
2019,03,06,16,38,4.70
2019,03,06,16,39,4.70
2019,03,06,16,40,4.60
2019,03,06,16,41,4.60
2019,03,06,16,42,4.60
2019,03,06,16,43,4.60
2019,03,06,16,44,4.50
2019,03,06,16,45,4.50
2019,03,06,16,46,4.50
2019,03,06,16,47,4.50
2019,03,06,16,48,4.50
2019,03,06,16,49,4.40
2019,03,06,16,50,4.40
2019,03,06,16,51,4.40
2019,03,06,16,52,4.40
2019,03,06,16,53,4.40
2019,03,06,16,54,4.40
2019,03,06,16,55,4.40
2019,03,06,16,56,4.40
2019,03,06,16,57,4.30
2019,03,06,16,58,4.30
2019,03,06,16,59,4.30
2019,03,06,17,00,4.30
2019,03,06,17,01,4.30
2019,03,06,17,02,4.30
2019,03,06,17,03,4.30
2019,03,06,17,04,4.30
2019,03,06,17,05,4.30
2019,03,06,17,06,4.30
2019,03,06,17,07,4.30
2019,03,06,17,08,4.30
2019,03,06,17,09,4.30
2019,03,06,17,10,4.30
2019,03,06,17,11,4.30
2019,03,06,17,12,4.30
2019,03,06,17,13,4.20
2019,03,06,17,14,4.20
2019,03,06,17,15,4.20
2019,03,06,17,16,4.20
2019,03,06,17,17,4.20
2019,03,06,17,18,4.20
2019,03,06,17,19,4.20
2019,03,06,17,20,4.10
2019,03,06,17,21,4.10
2019,03,06,17,22,4.10
2019,03,06,17,23,4.10
2019,03,06,17,24,4.10
2019,03,06,17,25,4.00
2019,03,06,17,26,4.00
2019,03,06,17,27,4.00
2019,03,06,17,28,3.90
2019,03,06,17,29,3.90
2019,03,06,17,30,3.90
2019,03,06,17,31,3.90
2019,03,06,17,32,3.90
2019,03,06,17,33,3.90
2019,03,06,17,34,3.80
2019,03,06,17,35,3.80
2019,03,06,17,36,3.80
2019,03,06,17,37,3.80
2019,03,06,17,38,3.80
2019,03,06,17,39,3.70
2019,03,06,17,40,3.70
2019,03,06,17,41,3.70
2019,03,06,17,42,3.70
2019,03,06,17,43,3.60
2019,03,06,17,44,3.60
2019,03,06,17,45,3.60
2019,03,06,17,46,3.60
2019,03,06,17,47,3.50
2019,03,06,17,48,3.50
2019,03,06,17,49,3.40
2019,03,06,17,50,3.40
2019,03,06,17,51,3.40
2019,03,06,17,52,3.40
2019,03,06,17,53,3.40
2019,03,06,17,54,3.40
2019,03,06,17,55,3.30
2019,03,06,17,56,3.30
2019,03,06,17,57,3.30
2019,03,06,17,58,3.30
2019,03,06,17,59,3.30
2019,03,06,18,00,3.20
2019,03,06,18,01,3.20
2019,03,06,18,02,3.20
2019,03,06,18,03,3.20
2019,03,06,18,04,3.20
2019,03,06,18,05,3.20
2019,03,06,18,06,3.10
2019,03,06,18,07,3.10
2019,03,06,18,08,3.10
2019,03,06,18,09,3.10
2019,03,06,18,10,3.10
2019,03,06,18,11,3.10
2019,03,06,18,12,3.10
2019,03,06,18,13,3.10
2019,03,06,18,14,3.00
2019,03,06,18,15,3.00
2019,03,06,18,16,3.00
2019,03,06,18,17,3.00
2019,03,06,18,18,2.90
2019,03,06,18,19,2.90
2019,03,06,18,20,2.90
2019,03,06,18,21,2.80
2019,03,06,18,22,2.80
2019,03,06,18,23,2.70
2019,03,06,18,24,2.70
2019,03,06,18,25,2.70
2019,03,06,18,26,2.60
2019,03,06,18,27,2.60
2019,03,06,18,28,2.60
2019,03,06,18,29,2.50
2019,03,06,18,30,2.50
2019,03,06,18,31,2.50